Flag for Norway Weather past 2 weeks in Fevik, Norway

Now
62 °F

Cool.


Feels Like: 62 °F
Forecast: 58 / 72 °F
Wind: 5 mph from Southwest

Location: Torungen Fyr

Current Time: Jul 4, 2015 at 9:47:33 PM

Latest Report: Jul 4, 2015 at 9:00 PM


Visibility: N/A

Pressure: 30.10 "Hg

Humidity: 89%

Dew point: 59 °F

Location of FevikLocation

Historic Weather in Fevik — Graph

°F

Fevik temperature yesterday

Maximum temperature yesterday: 67 °F (at 1:00 PM)
Minimum temperature yesterday: 62 °F (at 7:00 PM)
Average temperature yesterday: 65 °F

Past Weeks' High & Low Weather Summary

 TemperatureHumidityPressure
High69 °F (Jun 24, 4:00 PM)97% (Jun 28, 6:00 AM)30.34 "Hg (Jun 28, 6:00 AM)
Low50 °F (Jun 22, 5:00 AM)34% (Jun 25, 3:00 PM)29.65 "Hg (Jun 24, 3:00 AM)
Average59 °F77%29.99 "Hg
* Reported Jun 19 8:00 PM — Jul 4 8:00 PM, Fevik, Weather by CustomWeather, © 2015

Note: Actual official high and low records may vary slightly from our data, if they occured in-between our weather recording intervals... More about our weather records

Advertising

Fevik weather history for previous 24 hours

 ConditionsComfort  
Time TempWeatherWind HumidityBarometerVisibility
8:00 PM
Sat, Jul 4
62 °FCool.6 mph89%30.11 "HgN/A
7:00 PM62 °FCool.5 mph89%30.11 "HgN/A
6:00 PM61 °FCool.5 mph88%30.11 "HgN/A
5:00 PM59 °FCool.5 mph91%30.13 "HgN/A
4:00 PM60 °FCool.6 mph90%30.15 "HgN/A
3:00 PM60 °FCool.5 mph91%30.17 "HgN/A
2:00 PM60 °FCool.5 mph90%30.17 "HgN/A
1:00 PM60 °FCool.6 mph91%30.19 "HgN/A
12:00 PM60 °FCool.2 mph94%30.16 "HgN/A
11:00 AM60 °FCool.3 mph95%30.18 "HgN/A
10:00 AM58 °FCool.3 mph96%30.20 "HgN/A
9:00 AM59 °FCool.2 mph97%30.19 "HgN/A
8:00 AM59 °FCool.1 mph97%30.17 "HgN/A
7:00 AM59 °FCool.5 mph96%30.16 "HgN/A
6:00 AM60 °FCool.3 mph97%30.16 "HgN/A
5:00 AM61 °FCool.2 mph95%30.17 "HgN/A
4:00 AM60 °FCool.6 mph97%30.18 "HgN/A
3:00 AM60 °FCool.12 mph97%30.19 "HgN/A
2:00 AM62 °FCool.9 mph95%30.19 "HgN/A
1:00 AM63 °FMild.6 mph93%30.19 "HgN/A
12:00 AM64 °FMild.7 mph93%30.19 "HgN/A
11:00 PM
Fri, Jul 3
64 °FMild.7 mph92%30.20 "HgN/A
10:00 PM64 °FMild.8 mph92%30.20 "HgN/A
9:00 PM64 °FMild.9 mph93%30.20 "HgN/A
Weather by CustomWeather, © 2015

See weather overviewHow to use our weather pages